Location: Stonelick Lake State Park
(39.2170°N, 84.0850°W)
Time: 19:30:44
(UTC-04:00)

Amateur Radio Satellites - All Passes

Search period start: 29 June 2016 19:00
Search period end: 30 June 2016 19:00
Location: Stonelick Lake State Park, 39.2170°N, 84.0850°W

Satellite Date Start Highest point End Downlink Frequencies (MHz)
Time Altitude Azimuth
NOAA 18 29 Jun 19:03:12 19:08:40 89° 92° (E) 19:14:12 137.9125
BRITE-PL 29 Jun 19:04:32 19:09:36 73° 258° (WSW) 19:14:18 437.365/2234.400
Cosmos 2499 29 Jun 19:22:46 19:30:45 55° 90° (E) 19:39:15 435.465 / 435.565
CUBESAT XI-V 29 Jun 19:24:29 19:29:00 55° 286° (WNW) 19:33:28 437.345
GOMX 1 29 Jun 19:32:38 19:37:17 81° 256° (WSW) 19:41:40 467.674
CUTE-I 29 Jun 19:33:50 19:39:02 53° 259° (W) 19:44:18 437.470
STRAND 1 29 Jun 19:37:06 19:39:21 13° 90° (E) 19:41:36 437.568
HO-68 29 Jun 19:38:03 19:43:58 29° 61° (ENE) 19:49:54 435.675
CINEMA 3 29 Jun 19:39:19 19:41:19 13° 65° (ENE) 19:43:21 145.822/145.860
SRMSAT 29 Jun 19:49:26 19:50:55 11° 181° (S) 19:52:23 437.500
CUSAT 1 29 Jun 19:56:09 19:59:14 31° 269° (W) 20:01:48 437.405
NOAA 15 29 Jun 19:59:42 20:03:45 22° 266° (W) 20:07:50 137.62
RS-15 29 Jun 20:08:21 20:19:40 39° 40° (NE) 20:30:54 29.354- 29.394
COMPASS 1 29 Jun 20:10:10 20:12:16 14° 65° (ENE) 20:14:22 437.405
CANX-2 29 Jun 20:11:09 20:14:57 31° 71° (ENE) 20:18:45 2200.000
GONETS M04 29 Jun 20:15:28 20:23:53 52° 283° (WNW) 20:32:20
DOVE 4 29 Jun 20:27:24 20:31:33 43° 261° (W) 20:35:34 437.250
DANDE 29 Jun 20:29:22 20:33:53 48° 267° (W) 20:37:18 436.750
CUTE 1.7 + AOD 2 29 Jun 20:30:35 20:34:39 45° 73° (ENE) 20:38:45 437.475
SEEDS 29 Jun 20:32:36 20:36:26 34° 71° (ENE) 20:40:17 437.485
Cubesat XI-IV 29 Jun 20:43:17 20:45:35 13° 270° (W) 20:47:53 437.490
AUBIESAT-1 29 Jun 20:44:41 20:46:22 13° 62° (ENE) 20:48:05 437.475
NOAA 18 29 Jun 20:49:11 20:50:01 10° 271° (W) 20:50:51 137.9125
CUBEBUG 2 29 Jun 21:02:56 21:06:42 34° 71° (ENE) 21:10:33 437.445
AAUSAT CUBESAT 2 29 Jun 21:07:58 21:11:59 47° 74° (ENE) 21:16:02 437.432
STRAND 1 29 Jun 21:13:52 21:19:00 70° 286° (WNW) 21:24:06 437.568
CINEMA 3 29 Jun 21:14:03 21:18:03 47° 261° (W) 21:22:05 145.822/145.860
Cosmos 2499 29 Jun 21:16:58 21:24:15 32° 290° (WNW) 21:31:56 435.465 / 435.565
M-CUBED/EXP-1 PRIME 29 Jun 21:23:27 21:26:39 55° 69° (ENE) 21:29:51 437.505
ZACube-1 29 Jun 21:24:01 21:27:32 26° 69° (ENE) 21:31:07 437.345
HO-68 29 Jun 21:24:19 21:31:16 54° 259° (W) 21:38:17 435.675
Oscar 11 29 Jun 21:31:01 21:34:57 34° 71° (ENE) 21:38:54 145.826/435.025
FUNcube-1 29 Jun 21:40:27 21:44:19 37° 72° (ENE) 21:48:18 145.935
COMPASS 1 29 Jun 21:43:17 21:47:22 50° 260° (W) 21:51:30 437.405
UWE-3 29 Jun 21:47:10 21:51:20 76° 76° (ENE) 21:55:37 435.000/436.395/437.385
CANX-2 29 Jun 21:47:36 21:50:49 21° 266° (W) 21:54:04 2200.000
AO-85 29 Jun 21:50:23 21:55:43 58° 117° (ESE) 22:00:55 145.980
PRISM 29 Jun 21:53:58 21:57:56 47° 100° (E) 22:01:51 437.425
CUTE 1.7 + AOD 2 29 Jun 22:08:23 22:10:43 14° 268° (W) 22:13:04 437.475
SEEDS 29 Jun 22:09:11 22:12:12 19° 267° (W) 22:15:15 437.485
AUBIESAT-1 29 Jun 22:17:43 22:20:38 29° 257° (WSW) 22:23:35 437.475
RS-15 29 Jun 22:20:56 22:33:12 73° 245° (WSW) 22:45:17 29.354- 29.394
HUMSAT D 29 Jun 22:25:43 22:29:19 29° 70° (ENE) 22:32:58 437.325/437.525
YUBILEINY 29 Jun 22:37:46 22:38:21 10° 56° (NE) 22:38:56 435.215
CUBEBUG 2 29 Jun 22:40:34 22:43:26 18° 267° (W) 22:46:21 437.445
DELFI C3 29 Jun 22:43:54 22:47:56 75° 258° (WSW) 22:51:59 145.870
AAUSAT CUBESAT 2 29 Jun 22:45:43 22:47:43 13° 269° (W) 22:49:43 437.432
ZACube-1 29 Jun 23:00:20 23:03:46 24° 265° (W) 23:07:16 437.345
TIGRISAT 29 Jun 23:01:24 23:04:39 19° 93° (E) 23:07:55 435.000
UNISAT 6 29 Jun 23:06:40 23:10:20 22° 94° (E) 23:14:00 437.425
Oscar 11 29 Jun 23:08:02 23:11:09 19° 266° (W) 23:14:18 145.826/435.025
FUNcube-1 29 Jun 23:17:59 23:20:43 17° 268° (W) 23:23:31 145.935
CUBEBUG 1 29 Jun 23:21:13 23:23:40 15° 65° (ENE) 23:26:08 437.445
PRISM 29 Jun 23:30:49 23:32:49 13° 296° (WNW) 23:34:47 437.425
VELOX 1 29 Jun 23:32:14 23:35:16 19° 66° (ENE) 23:38:19 145.980
AO-85 29 Jun 23:32:17 23:36:33 23° 314° (NW) 23:40:41 145.980
ANTELSAT 29 Jun 23:45:41 23:50:19 58° 100° (E) 23:54:57 437.575/2403.000
Cosmos 2491 29 Jun 23:46:08 23:50:18 14° 76° (ENE) 23:54:29 435.465 / 435.565
HUMSAT D 30 Jun 00:01:42 00:04:56 22° 266° (W) 00:08:12 437.325/437.525
SPROUT 30 Jun 00:04:51 00:07:36 17° 66° (ENE) 00:10:22 437.525
UKube-1 30 Jun 00:05:06 00:08:40 26° 68° (ENE) 00:12:14 .
AISAT 30 Jun 00:11:48 00:16:04 52° 73° (ENE) 00:20:21 437.250
ESTCUBE 1 30 Jun 00:13:07 00:17:39 84° 75° (ENE) 00:22:13 437.505/2401.250
DX 1 30 Jun 00:26:51 00:31:06 57° 74° (ENE) 00:35:22 434.975-435.025
YUBILEINY 30 Jun 00:28:35 00:37:19 59° 78° (ENE) 00:45:59 435.215
50 SAT 30 Jun 00:36:31 00:40:13 73° 258° (WSW) 00:43:57 437.505
TIGRISAT 30 Jun 00:37:05 00:41:28 42° 288° (WNW) 00:45:54 435.000
RS-15 30 Jun 00:37:11 00:43:24 16° 264° (W) 00:49:37 29.354- 29.394
NANOSAT C BR1 30 Jun 00:37:26 00:41:14 31° 97° (E) 00:45:02 145.865
QB50P1 30 Jun 00:41:09 00:45:06 36° 98° (E) 00:49:03 145.935-145.965
UNISAT 6 30 Jun 00:42:51 00:47:04 35° 289° (WNW) 00:51:19 437.425
POPSAT HIP 1 30 Jun 00:44:28 00:48:29 39° 98° (E) 00:52:29 437.405
Cosmos 2504 30 Jun 00:44:40 00:51:36 25° 67° (ENE) 00:58:16 435.465 / 435.565
SO-50 30 Jun 00:52:38 00:57:02 40° 52° (NE) 01:01:18 436.795
CUBEBUG 1 30 Jun 00:55:20 00:59:33 48° 260° (W) 01:03:46 437.445
QB50P2 30 Jun 00:57:00 01:01:14 60° 101° (E) 01:05:28 145.880/145.840
DUCHIFAT 1 30 Jun 00:57:04 01:01:12 50° 100° (E) 01:05:19 145.980
POLYITAN 1 30 Jun 00:59:37 01:03:53 62° 102° (ESE) 01:08:07 437.675
JAS-2 30 Jun 01:06:00 01:09:08 15° 90° (E) 01:12:09 435.910
VELOX 1 30 Jun 01:07:19 01:11:26 39° 261° (W) 01:15:35 145.980
TISAT 1 30 Jun 01:18:57 01:22:30 28° 70° (ENE) 01:26:04 437.305
ANTELSAT 30 Jun 01:23:59 01:26:31 15° 296° (WNW) 01:29:05 437.575/2403.000
Cosmos 2491 30 Jun 01:36:54 01:45:41 82° 94° (E) 01:54:27 435.465 / 435.565
SPROUT 30 Jun 01:39:16 01:43:14 39° 262° (W) 01:47:14 437.525
UKube-1 30 Jun 01:41:01 01:44:37 26° 264° (W) 01:48:15 .
BUGSAT 1 30 Jun 01:46:56 01:51:04 85° 104° (ESE) 01:55:13 437.445
AISAT 30 Jun 01:50:44 01:52:50 13° 268° (W) 01:54:56 437.250
BEESAT 3 30 Jun 01:57:56 01:59:45 13° 109° (ESE) 02:01:34 437.485
DX 1 30 Jun 02:06:02 02:07:38 12° 269° (W) 02:09:13 434.975-435.025
NANOSAT C BR1 30 Jun 02:13:35 02:16:46 21° 292° (WNW) 02:19:57 145.865
QB50P1 30 Jun 02:17:40 02:20:35 18° 293° (WNW) 02:23:31 145.935-145.965
POPSAT HIP 1 30 Jun 02:21:09 02:23:56 17° 294° (WNW) 02:26:44 437.405
YUBILEINY 30 Jun 02:26:19 02:33:29 29° 277° (W) 02:40:40 435.215
SWISSCUBE 30 Jun 02:27:02 02:31:21 35° 70° (ENE) 02:35:43 437.505
SO-50 30 Jun 02:33:45 02:37:14 21° 249° (WSW) 02:40:36 436.795
DUCHIFAT 1 30 Jun 02:34:17 02:36:27 14° 295° (WNW) 02:38:37 145.980
QB50P2 30 Jun 02:34:55 02:36:30 12° 297° (WNW) 02:38:06 145.880/145.840
Cosmos 2504 30 Jun 02:36:58 02:45:49 72° 267° (W) 02:54:12 435.465 / 435.565
BEESAT 2 30 Jun 02:37:34 02:40:28 20° 111° (ESE) 02:43:23 435.950
POLYITAN 1 30 Jun 02:37:37 02:39:08 12° 297° (WNW) 02:40:39 437.675
PCSat 30 Jun 02:39:35 02:44:58 71° 115° (ESE) 02:50:23 145.827
O/OREOS (USA 219) 30 Jun 02:47:55 02:51:57 33° 104° (ESE) 02:55:59 437.305
JAS-2 30 Jun 02:49:20 02:54:47 57° 288° (WNW) 02:59:52 435.910
BEESAT 30 Jun 02:51:44 02:56:24 57° 73° (ENE) 03:01:06 436.000
ITUPSAT 1 30 Jun 02:53:45 02:58:28 58° 73° (ENE) 03:03:12 437.325
Oscar 19 30 Jun 02:54:14 02:59:19 61° 101° (ESE) 03:04:22 437.125/150
TISAT 1 30 Jun 02:54:53 02:58:08 22° 265° (W) 03:01:23 437.305
KKS-1 30 Jun 03:19:01 03:20:46 12° 63° (ENE) 03:22:31 437.445
MOZHAYETS 4 30 Jun 03:20:32 03:22:13 12° 62° (ENE) 03:23:53
ITAMSAT 1 30 Jun 03:21:38 03:24:43 16° 92° (E) 03:27:49 435.822/435.867
Gurwin Techsat 1B 30 Jun 03:23:22 03:28:32 49° 100° (E) 03:33:40 435.225
BEESAT 3 30 Jun 03:33:11 03:36:59 48° 305° (NW) 03:40:50 437.485
Cosmos 2491 30 Jun 03:37:28 03:43:33 20° 295° (WNW) 03:49:40 435.465 / 435.565
AO-7 30 Jun 03:42:34 03:46:36 14° 89° (E) 03:50:36 29.400- 29.500
STARS 30 Jun 03:47:00 03:48:39 12° 63° (ENE) 03:50:19 437.465
AIST 1 30 Jun 03:58:06 04:00:32 15° 71° (ENE) 04:02:58
SWISSCUBE 30 Jun 04:05:24 04:09:11 23° 265° (W) 04:13:01 437.505
BEESAT 2 30 Jun 04:14:29 04:18:05 33° 308° (NW) 04:21:43 435.950
PCSat 30 Jun 04:25:09 04:28:54 19° 314° (NW) 04:32:41 145.827
O/OREOS (USA 219) 30 Jun 04:27:52 04:31:24 22° 301° (WNW) 04:34:56 437.305
BEESAT 30 Jun 04:32:00 04:34:31 14° 268° (W) 04:37:03 436.000
GONETS M04 30 Jun 04:32:36 04:36:52 14° 60° (ENE) 04:41:07
ITUPSAT 1 30 Jun 04:34:12 04:36:39 14° 269° (W) 04:39:07 437.325
Cosmos 2504 30 Jun 04:34:17 04:37:26 12° 286° (WNW) 04:40:33 435.465 / 435.565
Oscar 19 30 Jun 04:35:01 04:38:07 16° 297° (WNW) 04:41:13 437.125/150
CUBESAT XI-V 30 Jun 04:51:54 04:54:03 13° 63° (ENE) 04:56:11 437.345
KKS-1 30 Jun 04:52:24 04:56:47 63° 259° (WSW) 05:01:10 437.445
MOZHAYETS 4 30 Jun 04:54:08 04:58:44 72° 258° (WSW) 05:03:23
ITAMSAT 1 30 Jun 04:59:25 05:04:33 59° 288° (WNW) 05:09:40 435.822/435.867
Gurwin Techsat 1B 30 Jun 05:04:13 05:08:06 21° 296° (WNW) 05:11:58 435.225
AIST 2 30 Jun 05:09:29 05:13:26 47° 116° (ESE) 05:17:24 435.215
Cosmos 2499 30 Jun 05:16:55 05:22:43 19° 63° (ENE) 05:28:17 435.465 / 435.565
STARS 30 Jun 05:20:10 05:24:27 63° 258° (WSW) 05:28:48 437.465
AO-7 30 Jun 05:32:05 05:40:31 80° 107° (ESE) 05:48:52 29.400- 29.500
AIST 1 30 Jun 05:34:20 05:38:20 41° 268° (W) 05:42:20
HORYU 2 30 Jun 06:09:47 06:14:06 44° 100° (E) 06:18:23 437.375
AO-85 30 Jun 06:24:08 06:28:15 33° 50° (NE) 06:32:03 145.980
CUBESAT XI-V 30 Jun 06:26:11 06:30:51 66° 259° (W) 06:35:32 437.345
GONETS M04 30 Jun 06:26:32 06:35:17 76° 81° (E) 06:44:03
NOAA 15 30 Jun 06:36:06 06:39:30 17° 92° (E) 06:42:53 137.62
AIST 2 30 Jun 06:49:19 06:52:10 18° 314° (NW) 06:55:00 435.215
STRAND 1 30 Jun 06:51:33 06:54:59 18° 63° (ENE) 06:58:25 437.568
PHONESAT 2.4 30 Jun 07:06:17 07:09:12 42° 158° (SSE) 07:12:08 2401.200-2431.200
Cosmos 2499 30 Jun 07:08:18 07:17:07 88° 264° (W) 07:25:18 435.465 / 435.565
BRITE-PL 30 Jun 07:10:31 07:14:18 33° 98° (E) 07:18:08 437.365/2234.400
CUSAT 1 30 Jun 07:12:21 07:18:41 29° 91° (E) 07:24:14 437.405
Cubesat XI-IV 30 Jun 07:18:21 07:23:10 32° 97° (E) 07:27:56 437.490
AO-7 30 Jun 07:26:10 07:32:22 24° 306° (NW) 07:38:34 29.400- 29.500
NOAA 18 30 Jun 07:26:29 07:31:44 41° 99° (E) 07:36:57 137.9125
GOMX 1 30 Jun 07:35:17 07:38:59 28° 97° (E) 07:42:48 467.674
HORYU 2 30 Jun 07:47:21 07:50:17 17° 295° (WNW) 07:53:13 437.375
DANDE 30 Jun 07:49:53 07:56:57 31° 88° (E) 08:03:33 436.750
CUTE-I 30 Jun 07:51:47 07:57:09 68° 102° (ESE) 08:02:29 437.470
LilacSat-2 30 Jun 08:03:12 08:07:06 77° 284° (WNW) 08:10:59 437.200
AO-85 30 Jun 08:05:03 08:08:28 23° 250° (WSW) 08:11:41 145.980
NOAA 15 30 Jun 08:14:29 08:19:35 54° 288° (WNW) 08:24:40 137.62
ISS 30 Jun 08:24:14 08:27:12 34° 135° (SE) 08:30:12 145.825
GONETS M04 30 Jun 08:25:04 08:31:06 21° 280° (W) 08:37:10
DOVE 4 30 Jun 08:26:17 08:30:31 48° 100° (E) 08:35:00 437.250
STRAND 1 30 Jun 08:28:40 08:33:41 54° 259° (W) 08:38:45 437.568
PRISM 30 Jun 08:42:23 08:46:02 30° 70° (ENE) 08:49:39 437.425
PHONESAT 2.4 30 Jun 08:42:41 08:45:45 71° 353° (N) 08:48:49 2401.200-2431.200
BRITE-PL 30 Jun 08:49:47 08:52:35 18° 293° (WNW) 08:55:25 437.365/2234.400
CUSAT 1 30 Jun 08:53:03 09:00:33 52° 282° (WNW) 09:06:52 437.405
HO-68 30 Jun 08:53:22 08:59:41 32° 96° (E) 09:05:56 435.675
Cubesat XI-IV 30 Jun 08:58:27 09:03:09 31° 293° (WNW) 09:07:49 437.490
Cosmos 2499 30 Jun 09:04:00 09:08:48 16° 284° (WNW) 09:13:27 435.465 / 435.565
NOAA 18 30 Jun 09:07:37 09:12:08 26° 295° (WNW) 09:16:39 137.9125
CINEMA 3 30 Jun 09:08:51 09:13:13 41° 98° (E) 09:17:44 145.822/145.860
GOMX 1 30 Jun 09:13:38 09:16:58 23° 291° (WNW) 09:20:24 467.674
COMPASS 1 30 Jun 09:27:32 09:31:04 26° 95° (E) 09:34:34 437.405
DANDE 30 Jun 09:31:11 09:39:27 58° 282° (WNW) 09:47:01 436.750
CANX-2 30 Jun 09:32:22 09:36:41 73° 102° (ESE) 09:40:55 2200.000
CUTE-I 30 Jun 09:33:25 09:36:36 16° 299° (WNW) 09:39:46 437.470
UWE-3 30 Jun 09:38:31 09:41:40 18° 93° (E) 09:44:50 435.000/436.395/437.385
CUTE 1.7 + AOD 2 30 Jun 09:52:02 09:56:19 76° 285° (WNW) 10:00:33 437.475
SEEDS 30 Jun 09:52:37 09:56:53 77° 102° (ESE) 10:01:04 437.485
AUBIESAT-1 30 Jun 09:56:55 09:59:23 15° 99° (E) 10:01:56 437.475
TIGRISAT 30 Jun 10:00:15 10:02:27 14° 64° (ENE) 10:04:40 435.000
ISS 30 Jun 10:00:49 10:03:40 27° 332° (NNW) 10:06:32 145.825
DOVE 4 30 Jun 10:05:19 10:07:54 16° 294° (WNW) 10:10:33 437.250
UNISAT 6 30 Jun 10:05:22 10:08:08 17° 65° (ENE) 10:10:57 437.425
PRISM 30 Jun 10:18:14 10:21:20 20° 265° (W) 10:24:27 437.425
PHONESAT 2.4 30 Jun 10:19:23 10:22:27 83° 7° (N) 10:25:32 2401.200-2431.200
DELFI C3 30 Jun 10:24:01 10:26:16 15° 92° (E) 10:28:31 145.870
AAUSAT CUBESAT 2 30 Jun 10:26:28 10:30:39 77° 282° (WNW) 10:34:46 437.432
CUBEBUG 2 30 Jun 10:30:14 10:34:54 86° 283° (WNW) 10:39:38 437.445
RS-15 30 Jun 10:35:07 10:42:21 20° 98° (E) 10:49:46 29.354- 29.394
M-CUBED/EXP-1 PRIME 30 Jun 10:36:37 10:40:31 54° 105° (ESE) 10:44:44 437.505
HO-68 30 Jun 10:40:41 10:47:31 47° 293° (WNW) 10:54:18 435.675
ANTELSAT 30 Jun 10:43:32 10:47:36 42° 72° (ENE) 10:51:47 437.575/2403.000
CINEMA 3 30 Jun 10:46:47 10:50:05 20° 292° (WNW) 10:53:29 145.822/145.860
ZACube-1 30 Jun 10:48:23 10:52:56 67° 100° (E) 10:57:31 437.345
Oscar 11 30 Jun 10:54:45 10:59:08 84° 105° (ESE) 11:03:28 145.826/435.025
BEESAT 2 30 Jun 10:57:12 10:58:35 11° 42° (NE) 10:59:59 435.950
COMPASS 1 30 Jun 11:03:09 11:06:30 24° 291° (WNW) 11:09:50 437.405
FUNcube-1 30 Jun 11:04:54 11:09:28 85° 284° (WNW) 11:14:03 145.935
UWE-3 30 Jun 11:13:54 11:18:17 43° 287° (WNW) 11:22:41 435.000/436.395/437.385
DANDE 30 Jun 11:21:23 11:23:34 11° 299° (WNW) 11:25:41 436.750
PCSat 30 Jun 11:28:37 11:33:50 44° 56° (ENE) 11:38:59 145.827
NANOSAT C BR1 30 Jun 11:29:04 11:32:11 21° 68° (ENE) 11:35:20 145.865
AUBIESAT-1 30 Jun 11:30:09 11:33:56 43° 292° (WNW) 11:37:59 437.475
QB50P1 30 Jun 11:32:55 11:36:17 24° 69° (ENE) 11:39:40 145.935-145.965
TIGRISAT 30 Jun 11:34:28 11:38:39 52° 260° (W) 11:42:57 435.000
POPSAT HIP 1 30 Jun 11:36:13 11:39:40 26° 69° (ENE) 11:43:10 437.405
YUBILEINY 30 Jun 11:39:11 11:41:17 11° 74° (ENE) 11:43:24 435.215
ISS 30 Jun 11:40:16 11:40:59 11° 351° (N) 11:41:42 145.825
UNISAT 6 30 Jun 11:40:24 11:44:29 42° 261° (W) 11:48:41 437.425
HUMSAT D 30 Jun 11:44:54 11:49:12 64° 100° (E) 11:53:28 437.325/437.525
DUCHIFAT 1 30 Jun 11:48:02 11:51:42 31° 71° (ENE) 11:55:24 145.980
QB50P2 30 Jun 11:48:33 11:52:26 38° 72° (ENE) 11:56:21 145.880/145.840
Cosmos 2491 30 Jun 11:49:00 11:56:59 39° 73° (ENE) 12:04:56 435.465 / 435.565
POLYITAN 1 30 Jun 11:51:10 11:55:03 39° 72° (ENE) 11:58:59 437.675
BEESAT 3 30 Jun 11:51:13 11:55:09 64° 57° (ENE) 11:59:03 437.485
PHONESAT 2.4 30 Jun 11:56:12 11:58:54 28° 206° (SSW) 12:01:37 2401.200-2431.200
DELFI C3 30 Jun 11:57:35 12:01:17 37° 288° (WNW) 12:04:57 145.870
AISAT 30 Jun 12:06:02 12:06:37 10° 90° (E) 12:07:14 437.250
ESTCUBE 1 30 Jun 12:07:41 12:10:51 19° 93° (E) 12:14:00 437.505/2401.250
M-CUBED/EXP-1 PRIME 30 Jun 12:12:50 12:14:43 13° 299° (WNW) 12:16:42 437.505
DX 1 30 Jun 12:19:12 12:19:42 10° 91° (E) 12:20:12 434.975-435.025
ANTELSAT 30 Jun 12:21:55 12:24:32 16° 268° (W) 12:27:12 437.575/2403.000
ZACube-1 30 Jun 12:26:48 12:28:39 12° 297° (WNW) 12:30:30 437.345
BEESAT 2 30 Jun 12:32:58 12:36:58 81° 240° (WSW) 12:40:56 435.950
BUGSAT 1 30 Jun 12:35:32 12:39:24 48° 73° (ENE) 12:43:15 437.445
RS-15 30 Jun 12:41:27 12:52:49 85° 119° (ESE) 13:04:53 29.354- 29.394
CUBEBUG 1 30 Jun 12:45:02 12:48:53 31° 97° (E) 12:52:44 437.445
JAS-2 30 Jun 12:57:46 13:05:10 57° 71° (ENE) 13:11:53 435.910
VELOX 1 30 Jun 12:58:11 13:02:20 40° 99° (E) 13:06:27 145.980
O/OREOS (USA 219) 30 Jun 12:58:26 13:02:51 54° 66° (ENE) 13:07:15 437.305
NANOSAT C BR1 30 Jun 13:04:02 13:07:44 30° 263° (W) 13:11:27 145.865
QB50P1 30 Jun 13:08:26 13:11:57 26° 264° (W) 13:15:29 145.935-145.965
POPSAT HIP 1 30 Jun 13:11:59 13:15:23 24° 265° (W) 13:18:50 437.405
PCSat 30 Jun 13:12:38 13:16:55 24° 253° (WSW) 13:21:12 145.827
ISS 30 Jun 13:17:28 13:18:38 11° 12° (NNE) 13:19:48 145.825
HUMSAT D 30 Jun 13:22:46 13:24:16 12° 297° (WNW) 13:25:45 437.325/437.525
Cosmos 2504 30 Jun 13:23:16 13:28:32 19° 78° (ENE) 13:33:59 435.465 / 435.565
DUCHIFAT 1 30 Jun 13:24:24 13:27:27 19° 266° (W) 13:30:30 145.980
QB50P2 30 Jun 13:25:44 13:28:23 16° 267° (W) 13:31:03 145.880/145.840
SPROUT 30 Jun 13:26:02 13:30:00 35° 98° (E) 13:33:56 437.525
YUBILEINY 30 Jun 13:27:42 13:36:18 70° 93° (E) 13:45:00 435.215
UKube-1 30 Jun 13:28:16 13:32:30 53° 101° (E) 13:36:42 .
POLYITAN 1 30 Jun 13:28:26 13:31:01 16° 267° (W) 13:33:37 437.675
AIST 2 30 Jun 13:32:02 13:35:27 24° 49° (NE) 13:38:52 435.215
AISAT 30 Jun 13:39:08 13:43:30 65° 285° (WNW) 13:47:51 437.250
50 SAT 30 Jun 13:40:14 13:43:48 47° 286° (WNW) 13:47:18 437.505
ESTCUBE 1 30 Jun 13:43:37 13:47:46 38° 289° (WNW) 13:51:54 437.505/2401.250
Cosmos 2491 30 Jun 13:45:46 13:53:51 44° 272° (W) 14:01:55 435.465 / 435.565
DX 1 30 Jun 13:51:59 13:56:17 64° 286° (WNW) 14:00:35 434.975-435.025
Oscar 19 30 Jun 14:09:54 14:15:02 79° 75° (ENE) 14:20:12 437.125/150
BUGSAT 1 30 Jun 14:13:35 14:15:03 12° 269° (W) 14:16:29 437.445
CUBEBUG 1 30 Jun 14:21:41 14:24:59 22° 292° (WNW) 14:28:15 437.445
VELOX 1 30 Jun 14:35:31 14:38:29 18° 294° (WNW) 14:41:27 145.980
ITAMSAT 1 30 Jun 14:38:15 14:42:17 23° 65° (ENE) 14:46:19 435.822/435.867
TISAT 1 30 Jun 14:38:36 14:42:45 58° 100° (E) 14:46:55 437.305
O/OREOS (USA 219) 30 Jun 14:39:42 14:41:44 13° 261° (W) 14:43:45 437.305
AO-7 30 Jun 14:40:12 14:46:05 22° 53° (NE) 14:52:00 29.400- 29.500
Gurwin Techsat 1B 30 Jun 14:43:17 14:48:33 70° 74° (ENE) 14:53:51 435.225
JAS-2 30 Jun 14:44:03 14:50:19 28° 265° (W) 14:56:13 435.910
ISS 30 Jun 14:52:48 14:55:50 35° 31° (NNE) 14:58:52 145.825
BEESAT 30 Jun 14:54:15 14:57:06 16° 92° (E) 14:59:56 436.000
ITUPSAT 1 30 Jun 14:56:36 14:59:34 16° 92° (E) 15:02:33 437.325
RS-15 30 Jun 14:56:42 15:06:52 33° 325° (NW) 15:17:33 29.354- 29.394
SPROUT 30 Jun 15:02:39 15:05:41 19° 293° (WNW) 15:08:42 437.525
UKube-1 30 Jun 15:05:55 15:08:04 14° 296° (WNW) 15:10:13 .
SO-50 30 Jun 15:06:55 15:10:06 17° 109° (ESE) 15:13:17 436.795
AIST 2 30 Jun 15:10:15 15:13:58 31° 246° (WSW) 15:17:38 435.215
Cosmos 2504 30 Jun 15:12:32 15:20:40 83° 277° (W) 15:29:26 435.465 / 435.565
YUBILEINY 30 Jun 15:27:05 15:33:51 25° 293° (WNW) 15:40:43 435.215
Oscar 19 30 Jun 15:53:31 15:54:54 11° 270° (W) 15:56:18 437.125/150
SWISSCUBE 30 Jun 16:05:20 16:10:10 84° 284° (WNW) 16:14:56 437.505
TISAT 1 30 Jun 16:16:17 16:17:55 12° 296° (WNW) 16:19:31 437.305
ITAMSAT 1 30 Jun 16:16:31 16:21:26 43° 261° (W) 16:26:25 435.822/435.867
Gurwin Techsat 1B 30 Jun 16:26:28 16:28:59 13° 270° (W) 16:31:30 435.225
JUGNU 30 Jun 16:29:26 16:30:52 11° 177° (S) 16:32:18 437.505
ISS 30 Jun 16:29:27 16:32:10 24° 227° (SW) 16:34:51 145.825
AO-7 30 Jun 16:29:30 16:37:50 86° 252° (WSW) 16:46:16 29.400- 29.500
BEESAT 30 Jun 16:30:31 16:35:10 51° 288° (WNW) 16:39:47 436.000
ITUPSAT 1 30 Jun 16:33:01 16:37:40 50° 288° (WNW) 16:42:17 437.325
KKS-1 30 Jun 16:44:44 16:48:28 26° 96° (E) 16:52:11 437.445
SO-50 30 Jun 16:45:20 16:50:09 55° 305° (NW) 16:54:57 436.795
MOZHAYETS 4 30 Jun 16:50:36 16:54:37 29° 96° (E) 16:58:37
HORYU 2 30 Jun 17:06:45 17:10:47 36° 70° (ENE) 17:14:51 437.375
Cosmos 2504 30 Jun 17:10:43 17:15:33 16° 299° (WNW) 17:20:35 435.465 / 435.565
STARS 30 Jun 17:10:59 17:14:36 25° 96° (E) 17:18:13 437.465
RS-15 30 Jun 17:16:46 17:24:50 19° 360° (N) 17:33:03 29.354- 29.394
GONETS M04 30 Jun 17:34:12 17:38:58 16° 77° (ENE) 17:43:43
CUTE-I 30 Jun 17:36:15 17:38:34 13° 59° (ENE) 17:40:52 437.470
Cosmos 2499 30 Jun 17:54:41 17:58:34 14° 75° (ENE) 18:02:32 435.465 / 435.565
NOAA 15 30 Jun 17:54:48 17:59:08 26° 66° (ENE) 18:03:28 137.62
AIST 1 30 Jun 18:01:55 18:06:13 68° 278° (W) 18:10:31
BRITE-PL 30 Jun 18:19:53 18:24:30 39° 73° (ENE) 18:28:48 437.365/2234.400
KKS-1 30 Jun 18:21:12 18:24:58 27° 291° (WNW) 18:28:43 437.445
CUBESAT XI-V 30 Jun 18:24:06 18:28:15 32° 96° (E) 18:32:21 437.345
AO-7 30 Jun 18:27:01 18:31:39 16° 270° (W) 18:36:18 29.400- 29.500
MOZHAYETS 4 30 Jun 18:27:49 18:31:41 27° 292° (WNW) 18:35:31
Cubesat XI-IV 30 Jun 18:39:09 18:44:16 48° 71° (ENE) 18:49:25 437.490
GOMX 1 30 Jun 18:42:42 18:46:33 28° 71° (ENE) 18:50:15 467.674
LilacSat-2 30 Jun 18:44:03 18:47:37 41° 73° (ENE) 18:51:13 437.200
HORYU 2 30 Jun 18:44:13 18:47:25 19° 266° (W) 18:50:39 437.375
STARS 30 Jun 18:47:09 18:50:54 28° 291° (WNW) 18:54:40 437.465
